Regional Weather Roundup
Issued by NWS State College, PA

Home | Current Version | Previous Version | Graphics & Text | Print | Product List | Glossary Off
Versions: 1 2 3 4 5 6 7 8 9 10 11 12 13 14 15 16 17 18 19 20 21 22 23 24 25 26 27 28 29 30 31 32 33 34 35 36 37 38 39 40 41 42 43 44 45 46 47 48 49 50

000
ASUS41 KCTP 170210
RWRCTP

REGIONAL WEATHER ROUNDUP
NATIONAL WEATHER SERVICE STATE COLLEGE PA
1000 PM EDT TUE SEP 16 2014

Note: "fair" indicates few or no clouds below 12,000 feet with no
significant weather and/or obstructions to visibility.

* = STATION THAT DOES NOT REPORT PRECIPITATION /E.G. RAIN...SNOW...ETC/
    THUNDER OR FOG.

PAZ002>004-007>009-013>016-020>023-029>032-170300-
WESTERN PENNSYLVANIA

CITY           SKY/WX    TMP DP  RH WIND       PRES   REMARKS
ERIE           CLEAR     52  46  80 S3        30.08S
MEADVILLE      CLEAR     52  45  77 CALM      30.09S
FRANKLIN*      PTCLDY    52  43  71 CALM      30.11R
NEW CASTLE     FAIR      55  49  80 CALM      30.10S
BEAVER COUNTY  NOT AVBL
BUTLER*        CLOUDY    54  48  82 CALM      30.10R
PITTSBURGH INT PTCLDY    57  51  80 W5        30.08R
PITTSBURGH     CLEAR     59  48  67 NW3       30.07S
INDIANA*       MOCLDY    52  50  93 CALM      30.12S
LATROBE        CLEAR     52  52 100 CALM      30.08S
WASHINGTON CO* MOCLDY    46  45  93 CALM      30.09S VSB 1
$$

PAZ004>006-010>012-017>019-024>028-033>037-041-042-045-046-049>053-170300-
CENTRAL PENNSYLVANIA

CITY           SKY/WX    TMP DP  RH WIND       PRES   REMARKS
BRADFORD       CLEAR     44  41  89 CALM      30.09R
DUBOIS         CLEAR     51  44  77 N3        30.08R
CLEARFIELD     CLEAR     51  48  89 CALM      30.08R
JOHNSTOWN      CLEAR     54  46  74 W3        30.09R
ALTOONA        CLEAR     51  48  89 CALM      30.08R
STATE COLLEGE  PTCLDY    53  48  83 W3        30.06R
WILLIAMSPORT   MOCLDY    55  51  86 CALM      30.05R
SELINSGROVE    CLEAR     52  49  89 N5        30.05R
FT INDIANTOWN  MOCLDY    56  56  99 CALM      30.05R
CAPITAL CITY   CLOUDY    57  51  80 SW5       30.04S
HARRISBURG     PTCLDY    60  52  74 CALM      30.03S
YORK           CLOUDY    57  53  86 CALM      30.04S
$$

PAZ038>040-043-044-047-048-054-055-060>062-067>071-170300-
EASTERN PENNSYLVANIA

CITY           SKY/WX    TMP DP  RH WIND       PRES   REMARKS
SCRANTON       CLEAR     52  47  83 E7        30.05R
MOUNT POCONO   CLEAR     46  44  93 CALM      30.06R
ALLENTOWN      CLEAR     56  48  74 CALM      30.04R
QUAKERTOWN*    PTCLDY    57  52  82 CALM      30.05R
READING        CLEAR     58  51  78 CALM      30.03S
LANCASTER      NOT AVBL
COATESVILLE    MOCLDY    57  54  88 CALM      30.05S
POTTSTOWN      CLOUDY    57  52  83 CALM      30.05R
BLUE BELL      PTCLDY    55  54  94 CALM      30.03S
DOYLESTOWN     CLOUDY    59  32  36 NE3       30.03R
WILLOW GROVE   NOT AVBL
NORTH PHILA    MOCLDY    63  49  60 N9        30.04R
PHILADELPHIA   PTCLDY    66  50  56 N9        30.03R
$$


USA.gov is the U.S. government's official web portal to all federal, state and local government web resources and services.